Weather History for Marion, OH

Change the Weather History Date:

Friday, March 15, 2013

  Actual Average (KDLZ) Record (KDLZ)
Temperature  
Mean Temperature 36 °F -  
Max Temperature 46 °F 47 °F 78 °F (1990)
Min Temperature 27 °F 27 °F 5 °F (1993)
Degree Days  
Heating Degree Days 28    
Moisture  
Dew Point 30 °F    
Average Humidity 78    
Maximum Humidity 100    
Minimum Humidity 61    
Precipitation  
Precipitation 0.03 in - - ()
Sea Level Pressure  
Sea Level Pressure 29.98 in    
Wind  
Wind Speed 7 mph (SW)    
Max Wind Speed 12 mph    
Max Gust Speed -    
Visibility 9 miles    
Events Rain    
Averages and records for this station are not official NWS values.
T = Trace of Precipitation, MM = Missing Value Source: NWS Daily Summary

Daily Weather History Graph

Daily Weather History Graph

Search for Another Location

Airport:

Trip Planner

Search our weather history database for the weather conditions in past years. The results will help you decide how hot, cold, wet, or windy it might be!

Date:

Astronomy

Mar. 15, 2013 Rise Set
Actual Time 7:43 AM EDT 7:39 PM EDT
Civil Twilight 7:16 AM EDT 8:06 PM EDT
Nautical Twilight 6:44 AM EDT 8:38 PM EDT
Astronomical Twilight 6:12 AM EDT 9:10 PM EDT
Moon 9:31 AM EDT (3/15) 11:53 PM EDT (3/15)
Length of Visible Light 12h 50m
Length of Day
11h 55m
Waxing Crescent, 15% of the Moon is Illuminated
Mar 15
Waxing Crescent
Mar 19
First Quarter
Mar 27
Full
Apr 3
Last Quarter
Apr 10
New

Hourly Weather History & Observations

Time (EDT) Temp. Windchill Dew Point Humidity Pressure Visibility Wind Dir Wind Speed Gust Speed Precip Events Conditions
12:53 AM 28.0 °F 21.7 °F 21.0 °F 75% 30.15 in 10.0 mi SW 5.8 mph - N/A   Partly Cloudy
1:53 AM 27.0 °F 20.5 °F 21.0 °F 78% 30.14 in 10.0 mi SSW 5.8 mph - N/A   Clear
2:53 AM 28.9 °F 23.9 °F 21.9 °F 75% 30.13 in 10.0 mi SW 4.6 mph - N/A   Partly Cloudy
3:53 AM 30.9 °F 25.2 °F 23.0 °F 72% 30.10 in 10.0 mi SW 5.8 mph - N/A   Overcast
4:53 AM 28.9 °F 21.9 °F 23.0 °F 78% 30.07 in 10.0 mi SW 6.9 mph - N/A   Partly Cloudy
5:53 AM 27.0 °F 20.5 °F 21.9 °F 81% 30.06 in 10.0 mi SSW 5.8 mph - N/A   Clear
6:48 AM 28.4 °F 22.2 °F 24.8 °F 86% 30.01 in 10.0 mi SW 5.8 mph - N/A   Scattered Clouds
6:53 AM 28.9 °F 21.9 °F 24.1 °F 82% 30.05 in 10.0 mi SSW 6.9 mph - N/A   Partly Cloudy
7:53 AM 28.9 °F 21.9 °F 26.1 °F 89% 30.03 in 9.0 mi SSW 6.9 mph - N/A   Clear
8:53 AM 30.9 °F 22.8 °F 28.0 °F 89% 30.02 in 7.0 mi SW 9.2 mph - N/A   Clear
9:53 AM 33.1 °F 24.9 °F 28.9 °F 85% 30.02 in 8.0 mi SW 10.4 mph - N/A   Clear
10:53 AM 37.0 °F 29.8 °F 30.9 °F 79% 30.00 in 9.0 mi SW 10.4 mph - N/A   Clear
11:53 AM 39.9 °F 33.9 °F 30.9 °F 70% 29.97 in 10.0 mi WSW 9.2 mph - N/A   Clear
12:53 PM 41.0 °F 35.2 °F 32.0 °F 70% 29.96 in 10.0 mi SW 9.2 mph - N/A   Clear
1:53 PM 43.0 °F 38.2 °F 32.0 °F 65% 29.94 in 10.0 mi WSW 8.1 mph - N/A   Clear
2:53 PM 44.1 °F 38.1 °F 32.0 °F 63% 29.91 in 10.0 mi West 11.5 mph - N/A   Partly Cloudy
3:53 PM 46.0 °F 41.9 °F 33.1 °F 61% 29.89 in 10.0 mi West 8.1 mph - N/A   Partly Cloudy
4:53 PM 46.0 °F 41.9 °F 33.1 °F 61% 29.89 in 10.0 mi West 8.1 mph - N/A   Mostly Cloudy
5:53 PM 45.0 °F 39.7 °F 34.0 °F 65% 29.90 in 10.0 mi West 10.4 mph - N/A   Overcast
6:53 PM 45.0 °F 41.2 °F 35.1 °F 68% 29.89 in 9.0 mi West 6.9 mph - N/A   Overcast
7:53 PM 44.1 °F 40.1 °F 35.1 °F 71% 29.90 in 10.0 mi West 6.9 mph - N/A   Overcast
8:53 PM 43.0 °F - 37.0 °F 80% 29.89 in 7.0 mi Calm Calm - 0.00 in Rain Light Rain
9:53 PM 41.0 °F - 37.9 °F 89% 29.88 in 5.0 mi Calm Calm - 0.01 in Rain Light Rain
10:53 PM 39.9 °F 37.8 °F 39.0 °F 97% 29.88 in 3.0 mi SW 3.5 mph - 0.01 in   Overcast
11:41 PM 39.2 °F 35.9 °F 39.2 °F 100% 29.84 in 3.0 mi South 4.6 mph - 0.01 in Rain Light Rain
11:53 PM 39.9 °F 36.7 °F 39.0 °F 97% 29.86 in 2.5 mi South 4.6 mph - 0.01 in Rain Light Rain